Tracking 20241 objects as of 28-Jan-2020
HD Live streaming from Space Station
objects crossing your sky now

CZ-2D DEB

Track CZ-2D DEB now!
10-day predictions


NORAD ID: 43505
Int'l Code: 2018-025C
Perigee: 501.0 km
Apogee: 524.7 km
Inclination: 97.5 °
Period: 94.7 minutes
Semi major axis: 6883 km
RCS: Unknown
Launch date: March 17, 2018
Source: People's Republic of China (PRC)
Launch site: Jiuquan Satellite Launch Center, China (JSC)

Note: This is SATELLITE DEBRIS
aabbcc
Your satellite tracking list
Your tracking list is empty




NASA's NSSDC Master Catalog

Two Line Element Set (TLE):
1 43505U 18025C   20027.83382281 +.00001167 +00000-0 +57250-4 0  9997
2 43505 097.5327 153.6560 0017236 276.1528 083.7743 15.20040025100965
Source of the keplerian elements: AFSPC